| time (UTC) | temp F | wind direction | speed knots | gust knots | rain 1hr in | rain 24hr in | rain mn in | humidity % | barometer mb |
| 20260508135446 | 62 | 208 | 7.8 | 12.2 | 0.00 | 0.00 | 0.00 | 68 | 1014.2 |
| 20260508134942 | 62 | 245 | 5.2 | 7.0 | 0.00 | 0.00 | 0.00 | 69 | 1013.9 |
| 20260508134439 | 61 | 158 | 3.5 | 3.5 | 0.00 | 0.00 | 0.00 | 69 | 1014.1 |
| 20260508133936 | 61 | 273 | 5.2 | 8.7 | 0.00 | 0.00 | 0.00 | 69 | 1014.0 |
| 20260508133434 | 60 | 235 | 5.2 | 7.8 | 0.00 | 0.00 | 0.00 | 69 | 1014.1 |
| 20260508132930 | 60 | 220 | 7.0 | 7.8 | 0.00 | 0.00 | 0.00 | 69 | 1014.2 |
| 20260508132428 | 60 | 175 | 3.5 | 7.0 | 0.00 | 0.00 | 0.00 | 69 | 1014.1 |
| 20260508131925 | 60 | 111 | 7.0 | 8.7 | 0.00 | 0.00 | 0.00 | 69 | 1014.0 |
| 20260508131420 | 60 | 195 | 4.3 | 7.8 | 0.00 | 0.00 | 0.00 | 69 | 1014.1 |
| 20260508130917 | 59 | 42 | 3.5 | 6.1 | 0.00 | 0.00 | 0.00 | 70 | 1014.0 |
| 20260508130414 | 59 | 190 | 4.3 | 6.1 | 0.00 | 0.00 | 0.00 | 69 | 1013.8 |
| 20260508125910 | 59 | 189 | 2.6 | 3.5 | 0.00 | 0.00 | 0.00 | 69 | 1013.7 |
| 20260508125406 | 59 | 201 | 7.0 | 8.7 | 0.00 | 0.00 | 0.00 | 69 | 1013.9 |
| 20260508124904 | 59 | 180 | 7.0 | 7.8 | 0.00 | 0.00 | 0.00 | 69 | 1014.0 |
| 20260508124401 | 58 | 211 | 3.5 | 5.2 | 0.00 | 0.00 | 0.00 | 69 | 1013.8 |
| 20260508123859 | 58 | 197 | 2.6 | 3.5 | 0.00 | 0.00 | 0.00 | 69 | 1013.8 |
| 20260508123357 | 58 | 202 | 1.7 | 2.6 | 0.00 | 0.00 | 0.00 | 70 | 1013.7 |
| 20260508122853 | 57 | 192 | 3.5 | 5.2 | 0.00 | 0.00 | 0.00 | 70 | 1013.5 |
| 20260508122350 | 57 | 111 | 4.3 | 6.1 | 0.00 | 0.00 | 0.00 | 69 | 1013.4 |
| 20260508121848 | 57 | 201 | 8.7 | 12.2 | 0.00 | 0.00 | 0.00 | 69 | 1013.6 |
| 20260508121346 | 57 | 179 | 2.6 | 5.2 | 0.00 | 0.00 | 0.00 | 69 | 1013.4 |
| 20260508120843 | 57 | 168 | 0.9 | 1.7 | 0.00 | 0.00 | 0.00 | 68 | 1013.6 |
| 20260508120341 | 57 | 179 | 9.6 | 11.3 | 0.00 | 0.00 | 0.00 | 68 | 1013.7 |
| 20260508115838 | 57 | 204 | 5.2 | 7.0 | 0.00 | 0.00 | 0.00 | 67 | 1013.4 |
| 20260508115335 | 57 | 182 | 3.5 | 7.0 | 0.00 | 0.00 | 0.00 | 66 | 1013.5 |
| 20260508114832 | 57 | 172 | 5.2 | 7.0 | 0.00 | 0.00 | 0.00 | 66 | 1013.5 |
| 20260508114329 | 57 | 206 | 6.1 | 8.7 | 0.00 | 0.00 | 0.00 | 65 | 1013.1 |
| 20260508113826 | 57 | 202 | 3.5 | 5.2 | 0.00 | 0.00 | 0.00 | 64 | 1013.0 |
| 20260508113324 | 57 | 195 | 5.2 | 6.1 | 0.00 | 0.00 | 0.00 | 64 | 1013.0 |
| 20260508112820 | 57 | 93 | 4.3 | 5.2 | 0.00 | 0.00 | 0.00 | 63 | 1013.0 |
| 20260508112317 | 57 | 208 | 3.5 | 3.5 | 0.00 | 0.00 | 0.00 | 63 | 1012.7 |
| 20260508111813 | 57 | 186 | 4.3 | 7.0 | 0.00 | 0.00 | 0.00 | 63 | 1012.7 |
| 20260508111311 | 57 | 152 | 5.2 | 7.0 | 0.00 | 0.00 | 0.00 | 63 | 1012.8 |
| 20260508110808 | 57 | 192 | 6.1 | 7.8 | 0.00 | 0.00 | 0.00 | 63 | 1012.8 |
| 20260508110306 | 57 | 173 | 6.1 | 7.8 | 0.00 | 0.00 | 0.00 | 64 | 1012.7 |
| 20260508105805 | 57 | 178 | 4.3 | 6.1 | 0.00 | 0.00 | 0.00 | 64 | 1012.6 |
| 20260508105305 | 57 | 188 | 5.2 | 6.1 | 0.00 | 0.00 | 0.00 | 64 | 1012.6 |
| 20260508104759 | 57 | 161 | 5.2 | 6.1 | 0.00 | 0.00 | 0.00 | 64 | 1012.7 |
| 20260508104256 | 57 | 178 | 4.3 | 6.1 | 0.00 | 0.00 | 0.00 | 64 | 1012.5 |
| 20260508103753 | 57 | 193 | 5.2 | 6.1 | 0.00 | 0.00 | 0.00 | 63 | 1012.7 |
| 20260508103250 | 57 | 165 | 3.5 | 5.2 | 0.00 | 0.00 | 0.00 | 63 | 1012.6 |
| 20260508102747 | 57 | 70 | 5.2 | 6.1 | 0.00 | 0.00 | 0.00 | 63 | 1012.6 |
| 20260508102246 | 57 | 194 | 1.7 | 2.6 | 0.00 | 0.00 | 0.00 | 62 | 1012.6 |
| 20260508101742 | 57 | 207 | 3.5 | 5.2 | 0.00 | 0.00 | 0.00 | 62 | 1012.6 |
| 20260508101240 | 57 | 189 | 5.2 | 7.0 | 0.00 | 0.00 | 0.00 | 62 | 1012.6 |
| 20260508100738 | 58 | 175 | 5.2 | 7.0 | 0.00 | 0.00 | 0.00 | 61 | 1012.5 |
| 20260508100235 | 57 | 182 | 7.0 | 8.7 | 0.00 | 0.00 | 0.00 | 61 | 1012.5 |
| 20260508095731 | 57 | 150 | 3.5 | 3.5 | 0.00 | 0.00 | 0.00 | 61 | 1012.7 |
| 20260508095229 | 57 | 112 | 1.7 | 1.7 | 0.00 | 0.00 | 0.00 | 61 | 1012.7 |
| 20260508094725 | 58 | 154 | 2.6 | 3.5 | 0.00 | 0.00 | 0.00 | 61 | 1012.7 |
| 20260508094222 | 58 | 239 | 4.3 | 6.1 | 0.00 | 0.00 | 0.00 | 61 | 1012.6 |
| 20260508093720 | 58 | 213 | 4.3 | 6.1 | 0.00 | 0.00 | 0.00 | 60 | 1012.8 |
| 20260508093217 | 58 | 158 | 1.7 | 2.6 | 0.00 | 0.00 | 0.00 | 60 | 1012.7 |
| 20260508092714 | 58 | 140 | 1.7 | 2.6 | 0.00 | 0.00 | 0.00 | 60 | 1012.6 |
| 20260508092212 | 58 | 213 | 3.5 | 5.2 | 0.00 | 0.00 | 0.00 | 60 | 1012.6 |
| 20260508091710 | 58 | 231 | 3.5 | 5.2 | 0.00 | 0.00 | 0.00 | 60 | 1012.7 |
| 20260508091207 | 58 | 151 | 2.6 | 3.5 | 0.00 | 0.00 | 0.00 | 60 | 1012.5 |
| 20260508090704 | 58 | 184 | 5.2 | 7.0 | 0.00 | 0.00 | 0.00 | 60 | 1012.5 |
| 20260508090202 | 58 | 163 | 3.5 | 3.5 | 0.00 | 0.00 | 0.00 | 60 | 1012.6 |
| 20260508085657 | 58 | 150 | 3.5 | 3.5 | 0.00 | 0.00 | 0.00 | 60 | 1012.5 |
| 20260508085155 | 58 | 211 | 5.2 | 7.0 | 0.00 | 0.00 | 0.00 | 59 | 1012.6 |
| 20260508084651 | 58 | 142 | 1.7 | 2.6 | 0.00 | 0.00 | 0.00 | 59 | 1012.8 |
| 20260508084148 | 58 | 222 | 2.6 | 2.6 | 0.00 | 0.00 | 0.00 | 59 | 1012.8 |
| 20260508083646 | 58 | 190 | 5.2 | 7.8 | 0.00 | 0.00 | 0.00 | 59 | 1012.7 |
| 20260508083143 | 58 | 166 | 1.7 | 1.7 | 0.00 | 0.00 | 0.00 | 59 | 1012.7 |
| 20260508082638 | 58 | 180 | 1.7 | 2.6 | 0.00 | 0.00 | 0.00 | 60 | 1012.9 |
| 20260508082136 | 58 | 187 | 5.2 | 6.1 | 0.00 | 0.00 | 0.00 | 60 | 1013.0 |
| 20260508081633 | 58 | 184 | 2.6 | 2.6 | 0.00 | 0.00 | 0.00 | 60 | 1012.9 |
| 20260508081129 | 58 | 216 | 3.5 | 3.5 | 0.00 | 0.00 | 0.00 | 60 | 1013.0 |
| 20260508080627 | 58 | 181 | 5.2 | 7.0 | 0.00 | 0.00 | 0.00 | 60 | 1013.1 |
| 20260508080125 | 57 | 236 | 3.5 | 3.5 | 0.00 | 0.00 | 0.00 | 60 | 1013.1 |
| 20260508075621 | 57 | 138 | 2.6 | 3.5 | 0.00 | 0.00 | 0.00 | 61 | 1013.3 |
| 20260508075118 | 57 | 167 | 3.5 | 6.1 | 0.00 | 0.00 | 0.00 | 61 | 1013.1 |
| 20260508074616 | 57 | 191 | 5.2 | 7.8 | 0.00 | 0.00 | 0.00 | 61 | 1013.1 |
| 20260508074113 | 57 | 216 | 5.2 | 6.1 | 0.00 | 0.00 | 0.00 | 61 | 1013.2 |
| 20260508073610 | 57 | 200 | 3.5 | 3.5 | 0.00 | 0.00 | 0.00 | 61 | 1013.2 |
| 20260508073108 | 57 | 126 | 2.6 | 3.5 | 0.00 | 0.00 | 0.00 | 61 | 1013.3 |
| 20260508072603 | 57 | 188 | 4.3 | 6.1 | 0.00 | 0.00 | 0.00 | 61 | 1013.3 |
| 20260508072100 | 57 | 84 | 2.6 | 3.5 | 0.00 | 0.00 | 0.00 | 61 | 1013.5 |
| 20260508071558 | 57 | 162 | 3.5 | 3.5 | 0.00 | 0.00 | 0.00 | 61 | 1013.5 |
| 20260508071056 | 57 | 214 | 2.6 | 5.2 | 0.00 | 0.00 | 0.00 | 61 | 1013.5 |
| 20260508070553 | 57 | 195 | 3.5 | 3.5 | 0.00 | 0.00 | 0.00 | 61 | 1013.4 |
| 20260508070052 | 57 | 191 | 2.6 | 2.6 | 0.00 | 0.00 | 0.00 | 61 | 1013.5 |
| 20260508065549 | 57 | 191 | 1.7 | 1.7 | 0.00 | 0.00 | 0.00 | 62 | 1013.5 |
| 20260508065047 | 57 | 117 | 1.7 | 1.7 | 0.00 | 0.00 | 0.00 | 62 | 1013.7 |
| 20260508064544 | 57 | 131 | 2.6 | 3.5 | 0.00 | 0.00 | 0.00 | 62 | 1013.6 |
| 20260508064042 | 57 | 127 | 0.9 | 2.6 | 0.00 | 0.00 | 0.00 | 62 | 1013.7 |
| 20260508063539 | 57 | 136 | 5.2 | 7.0 | 0.00 | 0.00 | 0.00 | 63 | 1013.7 |
| 20260508063037 | 57 | 87 | 1.7 | 2.6 | 0.00 | 0.00 | 0.00 | 63 | 1013.6 |
| 20260508062534 | 57 | 153 | 3.5 | 3.5 | 0.00 | 0.00 | 0.00 | 63 | 1013.8 |
| 20260508062031 | 57 | 89 | 3.5 | 3.5 | 0.00 | 0.00 | 0.00 | 62 | 1013.8 |
| 20260508061529 | 57 | 181 | 2.6 | 3.5 | 0.00 | 0.00 | 0.00 | 62 | 1013.7 |
| 20260508061025 | 57 | 125 | 1.7 | 2.6 | 0.00 | 0.00 | 0.00 | 62 | 1013.7 |
| 20260508060522 | 57 | 51 | 2.6 | 3.5 | 0.00 | 0.00 | 0.00 | 62 | 1013.8 |
| 20260508060020 | 57 | 183 | 2.6 | 3.5 | 0.00 | 0.00 | 0.00 | 61 | 1013.8 |
| 20260508055515 | 58 | 206 | 4.3 | 5.2 | 0.00 | 0.00 | 0.00 | 61 | 1013.7 |
| 20260508055012 | 58 | 104 | 1.7 | 3.5 | 0.00 | 0.00 | 0.00 | 61 | 1013.7 |
| 20260508054509 | 58 | 95 | 1.7 | 2.6 | 0.00 | 0.00 | 0.00 | 60 | 1013.9 |
| 20260508054006 | 58 | 36 | 4.3 | 6.1 | 0.00 | 0.00 | 0.00 | 60 | 1013.8 |
| 20260508053502 | 58 | 54 | 0.9 | 1.7 | 0.00 | 0.00 | 0.00 | 60 | 1014.0 |
| 20260508053001 | 58 | 45 | 1.7 | 1.7 | 0.00 | 0.00 | 0.00 | 60 | 1014.0 |
| 20260508052458 | 58 | 200 | 1.7 | 1.7 | 0.00 | 0.00 | 0.00 | 59 | 1013.9 |
| 20260508051954 | 58 | 126 | 1.7 | 1.7 | 0.00 | 0.00 | 0.00 | 60 | 1014.1 |
| 20260508051449 | 58 | 198 | 1.7 | 1.7 | 0.00 | 0.00 | 0.00 | 60 | 1014.1 |
| 20260508050946 | 58 | 84 | 0.9 | 1.7 | 0.00 | 0.00 | 0.00 | 60 | 1014.0 |
| 20260508050442 | 58 | 180 | 3.5 | 3.5 | 0.00 | 0.00 | 0.00 | 60 | 1014.2 |
| 20260508045939 | 58 | 199 | 2.6 | 2.6 | 0.00 | 0.00 | 0.00 | 60 | 1014.2 |
| 20260508045436 | 58 | 43 | 0.9 | 1.7 | 0.00 | 0.00 | 0.00 | 60 | 1014.4 |
| 20260508044934 | 58 | 77 | 2.6 | 3.5 | 0.00 | 0.00 | 0.00 | 60 | 1014.1 |
| 20260508044431 | 58 | 55 | 1.7 | 1.7 | 0.00 | 0.00 | 0.00 | 61 | 1014.4 |
| 20260508043926 | 58 | 76 | 1.7 | 1.7 | 0.00 | 0.00 | 0.00 | 61 | 1014.4 |
| 20260508043424 | 58 | 53 | 0.9 | 1.7 | 0.00 | 0.00 | 0.00 | 61 | 1014.2 |
| 20260508042920 | 58 | 71 | 2.6 | 3.5 | 0.00 | 0.00 | 0.00 | 60 | 1014.5 |
| 20260508042418 | 58 | 187 | 1.7 | 2.6 | 0.00 | 0.00 | 0.00 | 60 | 1014.5 |
| 20260508041914 | 58 | 184 | 2.6 | 2.6 | 0.00 | 0.00 | 0.00 | 60 | 1014.6 |
| 20260508041411 | 59 | 45 | 0.9 | 1.7 | 0.00 | 0.00 | 0.00 | 60 | 1014.5 |
| 20260508040907 | 58 | 74 | 0.9 | 1.7 | 0.00 | 0.00 | 0.00 | 60 | 1014.7 |
| 20260508040405 | 58 | 169 | 2.6 | 2.6 | 0.00 | 0.00 | 0.00 | 60 | 1014.7 |
| 20260508035903 | 58 | 172 | 3.5 | 3.5 | 0.00 | 0.00 | 0.00 | 60 | 1014.6 |
| 20260508035359 | 59 | 193 | 1.7 | 1.7 | 0.00 | 0.00 | 0.00 | 60 | 1014.6 |
| 20260508034856 | 59 | 66 | 0.9 | 1.7 | 0.00 | 0.00 | 0.00 | 60 | 1015.0 |
| 20260508034354 | 59 | 64 | 0.9 | 1.7 | 0.00 | 0.00 | 0.00 | 60 | 1014.8 |
| 20260508033850 | 59 | 41 | 0.9 | 0.9 | 0.00 | 0.00 | 0.00 | 60 | 1014.9 |
| 20260508033348 | 59 | 106 | 1.7 | 2.6 | 0.00 | 0.00 | 0.00 | 59 | 1014.9 |
| 20260508032846 | 59 | 102 | 1.7 | 2.6 | 0.00 | 0.00 | 0.00 | 59 | 1014.9 |
| 20260508032343 | 59 | 196 | 1.7 | 3.5 | 0.00 | 0.00 | 0.00 | 58 | 1015.1 |
| 20260508031839 | 59 | 162 | 3.5 | 7.0 | 0.00 | 0.00 | 0.00 | 59 | 1015.0 |
| 20260508031336 | 59 | 67 | 0.9 | 1.7 | 0.00 | 0.00 | 0.00 | 59 | 1015.1 |
| 20260508030832 | 59 | 87 | 2.6 | 3.5 | 0.00 | 0.00 | 0.00 | 59 | 1015.0 |
| 20260508030330 | 60 | 62 | 0.9 | 0.9 | 0.00 | 0.00 | 0.00 | 58 | 1015.0 |
| 20260508025826 | 60 | 98 | 1.7 | 1.7 | 0.00 | 0.00 | 0.00 | 58 | 1015.2 |
| 20260508025324 | 60 | 176 | 1.7 | 1.7 | 0.00 | 0.00 | 0.00 | 58 | 1014.9 |
| 20260508024820 | 60 | 151 | 3.5 | 3.5 | 0.00 | 0.00 | 0.00 | 58 | 1015.0 |
| 20260508024317 | 60 | 158 | 1.7 | 2.6 | 0.00 | 0.00 | 0.00 | 58 | 1014.9 |
| 20260508023814 | 60 | 22 | 0.9 | 1.7 | 0.00 | 0.00 | 0.00 | 58 | 1014.9 |
| 20260508023310 | 60 | 31 | 0.0 | 0.9 | 0.00 | 0.00 | 0.00 | 58 | 1014.9 |
| 20260508022807 | 60 | 53 | 0.9 | 0.9 | 0.00 | 0.00 | 0.00 | 58 | 1015.0 |
| 20260508022306 | 60 | 55 | 1.7 | 2.6 | 0.00 | 0.00 | 0.00 | 58 | 1014.8 |
| 20260508021800 | 60 | 30 | 1.7 | 1.7 | 0.00 | 0.00 | 0.00 | 58 | 1014.8 |
| 20260508021256 | 60 | 85 | 0.9 | 0.9 | 0.00 | 0.00 | 0.00 | 58 | 1014.7 |
| 20260508020752 | 60 | 49 | 0.9 | 0.9 | 0.00 | 0.00 | 0.00 | 57 | 1014.5 |
| 20260508020251 | 61 | 42 | 0.0 | 0.0 | 0.00 | 0.00 | 0.00 | 57 | 1014.5 |
| 20260508015747 | 61 | 66 | 1.7 | 1.7 | 0.00 | 0.00 | 0.00 | 55 | 1014.4 |
| 20260508015244 | 61 | 292 | 0.9 | 1.7 | 0.00 | 0.00 | 0.00 | 55 | 1014.4 |
| 20260508014741 | 61 | 185 | 1.7 | 1.7 | 0.00 | 0.00 | 0.00 | 54 | 1014.2 |
| 20260508014238 | 62 | 14 | 0.9 | 1.7 | 0.00 | 0.00 | 0.00 | 54 | 1014.1 |
| 20260508013734 | 62 | 47 | 0.9 | 1.7 | 0.00 | 0.00 | 0.00 | 54 | 1014.1 |
| 20260508013230 | 62 | 55 | 0.0 | 0.9 | 0.00 | 0.00 | 0.00 | 54 | 1014.2 |
| 20260508012728 | 62 | 34 | 0.0 | 0.0 | 0.00 | 0.00 | 0.00 | 53 | 1014.1 |
| 20260508012225 | 63 | 289 | 1.7 | 2.6 | 0.00 | 0.00 | 0.00 | 52 | 1014.0 |
| 20260508011723 | 63 | 72 | 1.7 | 1.7 | 0.00 | 0.00 | 0.00 | 52 | 1014.0 |
| 20260508011220 | 64 | 210 | 1.7 | 1.7 | 0.00 | 0.00 | 0.00 | 51 | 1014.0 |
| 20260508010716 | 64 | 201 | 1.7 | 2.6 | 0.00 | 0.00 | 0.00 | 50 | 1013.9 |
| 20260508010215 | 64 | 193 | 1.7 | 2.6 | 0.00 | 0.00 | 0.00 | 49 | 1014.0 |
| 20260508005712 | 65 | 75 | 0.9 | 1.7 | 0.00 | 0.00 | 0.00 | 48 | 1013.8 |
| 20260508005208 | 65 | 134 | 1.7 | 2.6 | 0.00 | 0.00 | 0.00 | 48 | 1014.2 |
| 20260508004703 | 65 | 42 | 2.6 | 2.6 | 0.00 | 0.00 | 0.00 | 47 | 1014.0 |
| 20260508004200 | 65 | 25 | 0.9 | 1.7 | 0.00 | 0.00 | 0.00 | 46 | 1013.8 |
| 20260508003657 | 66 | 232 | 3.5 | 5.2 | 0.00 | 0.00 | 0.00 | 45 | 1014.1 |
| 20260508003154 | 66 | 143 | 3.5 | 5.2 | 0.00 | 0.00 | 0.00 | 44 | 1013.7 |
| 20260508002650 | 66 | 241 | 3.5 | 5.2 | 0.00 | 0.00 | 0.00 | 44 | 1013.9 |
| 20260508002149 | 67 | 182 | 0.9 | 1.7 | 0.00 | 0.00 | 0.00 | 44 | 1013.7 |
| 20260508001643 | 67 | 214 | 1.7 | 2.6 | 0.00 | 0.00 | 0.00 | 43 | 1014.0 |
| 20260508001140 | 67 | 299 | 0.9 | 1.7 | 0.00 | 0.00 | 0.00 | 44 | 1014.0 |
| 20260508000636 | 68 | 233 | 0.9 | 1.7 | 0.00 | 0.00 | 0.00 | 42 | 1013.9 |
| 20260508000133 | 68 | 232 | 3.5 | 5.2 | 0.00 | 0.00 | 0.00 | 42 | 1014.1 |
| 20260507235630 | 68 | 359 | 0.0 | 0.0 | 0.00 | 0.00 | 0.00 | 42 | 1013.9 |
| 20260507235128 | 68 | 29 | 0.9 | 1.7 | 0.00 | 0.00 | 0.00 | 43 | 1014.0 |
| 20260507234624 | 68 | 181 | 3.5 | 5.2 | 0.00 | 0.00 | 0.00 | 41 | 1013.8 |
| 20260507234120 | 68 | 359 | 0.9 | 1.7 | 0.00 | 0.00 | 0.00 | 42 | 1013.9 |
| 20260507233617 | 68 | 344 | 1.7 | 2.6 | 0.00 | 0.00 | 0.00 | 42 | 1013.9 |
| 20260507233116 | 68 | 236 | 3.5 | 3.5 | 0.00 | 0.00 | 0.00 | 42 | 1013.9 |
| 20260507232612 | 68 | 201 | 3.5 | 7.0 | 0.00 | 0.00 | 0.00 | 41 | 1013.9 |
| 20260507232110 | 69 | 141 | 6.1 | 7.8 | 0.00 | 0.00 | 0.00 | 40 | 1014.1 |
| 20260507231606 | 69 | 212 | 5.2 | 8.7 | 0.00 | 0.00 | 0.00 | 41 | 1014.0 |
| 20260507231103 | 69 | 329 | 1.7 | 2.6 | 0.00 | 0.00 | 0.00 | 41 | 1014.0 |
| 20260507230559 | 69 | 319 | 1.7 | 1.7 | 0.00 | 0.00 | 0.00 | 41 | 1014.2 |
| 20260507230056 | 69 | 318 | 0.9 | 1.7 | 0.00 | 0.00 | 0.00 | 42 | 1014.4 |
| 20260507225551 | 68 | 349 | 1.7 | 2.6 | 0.00 | 0.00 | 0.00 | 42 | 1014.2 |
| 20260507225048 | 69 | 129 | 1.7 | 2.6 | 0.00 | 0.00 | 0.00 | 41 | 1014.5 |
| 20260507224543 | 68 | 348 | 1.7 | 2.6 | 0.00 | 0.00 | 0.00 | 42 | 1014.5 |
| 20260507224040 | 69 | 207 | 3.5 | 3.5 | 0.00 | 0.00 | 0.00 | 41 | 1014.5 |
| 20260507223536 | 69 | 134 | 3.5 | 5.2 | 0.00 | 0.00 | 0.00 | 40 | 1014.5 |
| 20260507223033 | 69 | 225 | 4.3 | 6.1 | 0.00 | 0.00 | 0.00 | 40 | 1014.8 |
| 20260507222531 | 69 | 3 | 3.5 | 6.1 | 0.00 | 0.00 | 0.00 | 42 | 1014.7 |
| 20260507222027 | 70 | 216 | 4.3 | 6.1 | 0.00 | 0.00 | 0.00 | 38 | 1014.8 |
| 20260507221523 | 70 | 199 | 1.7 | 2.6 | 0.00 | 0.00 | 0.00 | 40 | 1014.7 |
| 20260507221020 | 71 | 193 | 4.3 | 6.1 | 0.00 | 0.00 | 0.00 | 40 | 1014.7 |
| 20260507220518 | 70 | 4 | 0.0 | 0.0 | 0.00 | 0.00 | 0.00 | 41 | 1014.8 |
| 20260507220015 | 69 | 184 | 4.3 | 7.0 | 0.00 | 0.00 | 0.00 | 41 | 1014.6 |
| 20260507215511 | 69 | 270 | 4.3 | 6.1 | 0.00 | 0.00 | 0.00 | 40 | 1014.8 |
| 20260507215009 | 70 | 123 | 0.9 | 1.7 | 0.00 | 0.00 | 0.00 | 41 | 1015.0 |
| 20260507214505 | 70 | 329 | 1.7 | 1.7 | 0.00 | 0.00 | 0.00 | 42 | 1015.0 |
| 20260507214001 | 69 | 174 | 2.6 | 2.6 | 0.00 | 0.00 | 0.00 | 42 | 1015.1 |
| 20260507213458 | 69 | 210 | 3.5 | 6.1 | 0.00 | 0.00 | 0.00 | 40 | 1015.1 |
| 20260507212955 | 68 | 238 | 4.3 | 6.1 | 0.00 | 0.00 | 0.00 | 41 | 1015.2 |
| 20260507212450 | 68 | 151 | 5.2 | 6.1 | 0.00 | 0.00 | 0.00 | 40 | 1015.0 |
| 20260507211948 | 70 | 215 | 6.1 | 7.8 | 0.00 | 0.00 | 0.00 | 39 | 1015.1 |
| 20260507211444 | 70 | 211 | 5.2 | 7.8 | 0.00 | 0.00 | 0.00 | 42 | 1015.2 |
| 20260507210941 | 69 | 322 | 0.9 | 1.7 | 0.00 | 0.00 | 0.00 | 43 | 1015.3 |
| 20260507210438 | 69 | 12 | 2.6 | 3.5 | 0.00 | 0.00 | 0.00 | 41 | 1015.4 |
| 20260507205935 | 69 | 238 | 3.5 | 5.2 | 0.00 | 0.00 | 0.00 | 42 | 1015.6 |
| 20260507205432 | 69 | 335 | 2.6 | 5.2 | 0.00 | 0.00 | 0.00 | 40 | 1015.3 |
| 20260507204928 | 69 | 309 | 1.7 | 1.7 | 0.00 | 0.00 | 0.00 | 41 | 1015.7 |
| 20260507204424 | 68 | 233 | 2.6 | 3.5 | 0.00 | 0.00 | 0.00 | 43 | 1015.8 |
| 20260507203922 | 68 | 290 | 3.5 | 5.2 | 0.00 | 0.00 | 0.00 | 42 | 1015.9 |
| 20260507203420 | 67 | 164 | 3.5 | 6.1 | 0.00 | 0.00 | 0.00 | 43 | 1015.9 |
| 20260507202916 | 67 | 204 | 9.6 | 12.2 | 0.00 | 0.00 | 0.00 | 43 | 1016.2 |
| 20260507202413 | 68 | 96 | 3.5 | 5.2 | 0.00 | 0.00 | 0.00 | 41 | 1016.4 |
| 20260507201908 | 69 | 172 | 6.1 | 8.7 | 0.00 | 0.00 | 0.00 | 41 | 1016.3 |
| 20260507201404 | 68 | 206 | 2.6 | 6.1 | 0.00 | 0.00 | 0.00 | 43 | 1016.1 |
| 20260507200901 | 69 | 185 | 2.6 | 7.0 | 0.00 | 0.00 | 0.00 | 42 | 1016.4 |
| 20260507200356 | 68 | 317 | 1.7 | 2.6 | 0.00 | 0.00 | 0.00 | 43 | 1016.3 |
| 20260507195852 | 68 | 220 | 1.7 | 2.6 | 0.00 | 0.00 | 0.00 | 42 | 1016.6 |
| 20260507195350 | 69 | 263 | 5.2 | 7.8 | 0.00 | 0.00 | 0.00 | 41 | 1016.7 |
| 20260507194847 | 67 | 2 | 1.7 | 2.6 | 0.00 | 0.00 | 0.00 | 42 | 1016.7 |
| 20260507194344 | 68 | 346 | 5.2 | 7.8 | 0.00 | 0.00 | 0.00 | 41 | 1017.0 |
| 20260507193840 | 68 | 234 | 2.6 | 3.5 | 0.00 | 0.00 | 0.00 | 41 | 1016.8 |
| 20260507193337 | 69 | 235 | 1.7 | 1.7 | 0.00 | 0.00 | 0.00 | 42 | 1016.9 |
| 20260507192833 | 68 | 1 | 1.7 | 1.7 | 0.00 | 0.00 | 0.00 | 43 | 1016.9 |
| 20260507192330 | 68 | 198 | 2.6 | 3.5 | 0.00 | 0.00 | 0.00 | 42 | 1016.9 |
| 20260507191826 | 67 | 189 | 6.1 | 8.7 | 0.00 | 0.00 | 0.00 | 41 | 1017.0 |
| 20260507191322 | 66 | 306 | 5.2 | 7.0 | 0.00 | 0.00 | 0.00 | 42 | 1017.0 |
| 20260507190820 | 68 | 222 | 1.7 | 1.7 | 0.00 | 0.00 | 0.00 | 41 | 1016.9 |
| 20260507190318 | 67 | 279 | 1.7 | 1.7 | 0.00 | 0.00 | 0.00 | 43 | 1017.0 |
| 20260507185817 | 68 | 72 | 1.7 | 3.5 | 0.00 | 0.00 | 0.00 | 40 | 1017.0 |
| 20260507185313 | 67 | 171 | 1.7 | 2.6 | 0.00 | 0.00 | 0.00 | 41 | 1017.3 |
| 20260507184810 | 67 | 213 | 2.6 | 3.5 | 0.00 | 0.00 | 0.00 | 42 | 1017.2 |
| 20260507184308 | 68 | 310 | 0.9 | 0.9 | 0.00 | 0.00 | 0.00 | 43 | 1017.3 |
| 20260507183805 | 67 | 317 | 2.6 | 2.6 | 0.00 | 0.00 | 0.00 | 44 | 1017.3 |
| 20260507183302 | 67 | 268 | 3.5 | 5.2 | 0.00 | 0.00 | 0.00 | 42 | 1017.4 |
| 20260507182759 | 67 | 248 | 2.6 | 3.5 | 0.00 | 0.00 | 0.00 | 40 | 1017.4 |
| 20260507182254 | 67 | 344 | 1.7 | 2.6 | 0.00 | 0.00 | 0.00 | 43 | 1017.5 |
| 20260507181751 | 66 | 272 | 0.0 | 0.9 | 0.00 | 0.00 | 0.00 | 44 | 1017.3 |
| 20260507181247 | 67 | 172 | 3.5 | 5.2 | 0.00 | 0.00 | 0.00 | 41 | 1017.6 |
| 20260507180744 | 65 | 7 | 2.6 | 2.6 | 0.00 | 0.00 | 0.00 | 43 | 1017.5 |
| 20260507180241 | 65 | 180 | 5.2 | 6.1 | 0.00 | 0.00 | 0.00 | 40 | 1017.3 |
| 20260507175736 | 66 | 206 | 7.8 | 8.7 | 0.00 | 0.00 | 0.00 | 40 | 1017.9 |
| 20260507175234 | 66 | 250 | 3.5 | 5.2 | 0.00 | 0.00 | 0.00 | 41 | 1017.8 |
| 20260507174731 | 65 | 303 | 1.7 | 1.7 | 0.00 | 0.00 | 0.00 | 43 | 1017.9 |
| 20260507174229 | 65 | 146 | 4.3 | 6.1 | 0.00 | 0.00 | 0.00 | 41 | 1018.0 |
| 20260507173726 | 64 | 179 | 3.5 | 5.2 | 0.00 | 0.00 | 0.00 | 41 | 1018.0 |
| 20260507173223 | 65 | 180 | 3.5 | 3.5 | 0.00 | 0.00 | 0.00 | 44 | 1018.1 |
| 20260507172719 | 66 | 187 | 3.5 | 6.1 | 0.00 | 0.00 | 0.00 | 39 | 1018.4 |
| 20260507172216 | 66 | 7 | 1.7 | 1.7 | 0.00 | 0.00 | 0.00 | 42 | 1018.3 |
| 20260507171716 | 65 | 355 | 1.7 | 1.7 | 0.00 | 0.00 | 0.00 | 42 | 1018.6 |
| 20260507171214 | 65 | 231 | 3.5 | 7.0 | 0.00 | 0.00 | 0.00 | 41 | 1018.7 |
| 20260507170711 | 65 | 19 | 0.9 | 1.7 | 0.00 | 0.00 | 0.00 | 42 | 1018.6 |
| 20260507170208 | 65 | 64 | 2.6 | 3.5 | 0.00 | 0.00 | 0.00 | 41 | 1018.7 |
| 20260507165703 | 65 | 199 | 3.5 | 5.2 | 0.00 | 0.00 | 0.00 | 41 | 1018.9 |
| 20260507165200 | 64 | 261 | 2.6 | 2.6 | 0.00 | 0.00 | 0.00 | 40 | 1019.0 |
| 20260507164656 | 64 | 240 | 5.2 | 6.1 | 0.00 | 0.00 | 0.00 | 40 | 1019.0 |
| 20260507164153 | 64 | 184 | 4.3 | 5.2 | 0.00 | 0.00 | 0.00 | 42 | 1019.2 |
| 20260507163650 | 64 | 188 | 3.5 | 5.2 | 0.00 | 0.00 | 0.00 | 39 | 1019.0 |
| 20260507163148 | 64 | 165 | 2.6 | 3.5 | 0.00 | 0.00 | 0.00 | 42 | 1019.1 |
| 20260507162644 | 63 | 210 | 1.7 | 2.6 | 0.00 | 0.00 | 0.00 | 41 | 1018.9 |
| 20260507162140 | 63 | 230 | 5.2 | 7.0 | 0.00 | 0.00 | 0.00 | 40 | 1019.1 |
| 20260507161636 | 64 | 324 | 0.9 | 1.7 | 0.00 | 0.00 | 0.00 | 40 | 1019.0 |
| 20260507161133 | 63 | 231 | 0.9 | 1.7 | 0.00 | 0.00 | 0.00 | 41 | 1019.2 |
| 20260507160629 | 63 | 17 | 0.9 | 0.9 | 0.00 | 0.00 | 0.00 | 42 | 1018.9 |
| 20260507160126 | 64 | 191 | 4.3 | 6.1 | 0.00 | 0.00 | 0.00 | 40 | 1019.1 |
| 20260507155622 | 63 | 13 | 0.9 | 0.9 | 0.00 | 0.00 | 0.00 | 43 | 1019.1 |
| 20260507155119 | 63 | 59 | 1.7 | 5.2 | 0.00 | 0.00 | 0.00 | 40 | 1019.1 |
| 20260507154615 | 62 | 125 | 0.9 | 1.7 | 0.00 | 0.00 | 0.00 | 43 | 1019.0 |
| 20260507154112 | 62 | 212 | 3.5 | 3.5 | 0.00 | 0.00 | 0.00 | 42 | 1019.2 |
| 20260507153604 | 63 | 301 | 1.7 | 1.7 | 0.00 | 0.00 | 0.00 | 40 | 1019.1 |
| 20260507153101 | 62 | 334 | 1.7 | 2.6 | 0.00 | 0.00 | 0.00 | 43 | 1019.3 |
| 20260507152556 | 62 | 84 | 0.9 | 1.7 | 0.00 | 0.00 | 0.00 | 42 | 1019.2 |
| 20260507152052 | 61 | 15 | 0.0 | 0.9 | 0.00 | 0.00 | 0.00 | 43 | 1019.3 |
| 20260507151548 | 61 | 220 | 3.5 | 5.2 | 0.00 | 0.00 | 0.00 | 43 | 1019.4 |
| 20260507151045 | 61 | 203 | 4.3 | 7.0 | 0.00 | 0.00 | 0.00 | 44 | 1019.6 |
| 20260507150542 | 62 | 18 | 0.9 | 1.7 | 0.00 | 0.00 | 0.00 | 42 | 1019.5 |
| 20260507150039 | 61 | 58 | 0.9 | 0.9 | 0.00 | 0.00 | 0.00 | 43 | 1019.6 |
| 20260507145533 | 60 | 206 | 1.7 | 2.6 | 0.00 | 0.00 | 0.00 | 44 | 1019.5 |
| 20260507145032 | 60 | 224 | 4.3 | 5.2 | 0.00 | 0.00 | 0.00 | 43 | 1019.5 |
| 20260507144528 | 61 | 336 | 0.9 | 1.7 | 0.00 | 0.00 | 0.00 | 43 | 1019.4 |
| 20260507144026 | 60 | 31 | 0.9 | 0.9 | 0.00 | 0.00 | 0.00 | 45 | 1019.5 |
| 20260507143523 | 60 | 34 | 2.6 | 2.6 | 0.00 | 0.00 | 0.00 | 46 | 1019.4 |
| 20260507143020 | 59 | 111 | 1.7 | 2.6 | 0.00 | 0.00 | 0.00 | 47 | 1019.5 |
| 20260507142515 | 59 | 74 | 2.6 | 3.5 | 0.00 | 0.00 | 0.00 | 49 | 1019.4 |
| 20260507142013 | 59 | 244 | 3.5 | 3.5 | 0.00 | 0.00 | 0.00 | 48 | 1019.6 |
| 20260507141508 | 59 | 187 | 4.3 | 5.2 | 0.00 | 0.00 | 0.00 | 49 | 1019.5 |
| 20260507141007 | 58 | 212 | 3.5 | 3.5 | 0.00 | 0.00 | 0.00 | 49 | 1019.5 |
| 20260507140502 | 57 | 89 | 1.7 | 1.7 | 0.00 | 0.00 | 0.00 | 50 | 1019.6 |
| 20260507135959 | 57 | 111 | 3.5 | 5.2 | 0.00 | 0.00 | 0.00 | 49 | 1019.7 |